GW2661 Weather Reports


time (UTC)temp
C
wind
direction
speed
KPH
gust
KPH
rain 1hr
cm
rain 24hr
cm
rain mn
cm
humidity
%
barometer
mb
20260503200050 16 222 6.4 12.9 0.00 0.00 0.00 68 1013.4
20260503195547 17 196 4.8 9.7 0.00 0.00 0.00 68 1013.3
20260503195044 16 163 6.4 12.9 0.00 0.00 0.00 70 1013.4
20260503194541 16 14 4.8 17.7 0.00 0.00 0.00 69 1013.7
20260503194041 16 351 3.2 12.9 0.00 0.00 0.00 69 1013.4
20260503193538 16 289 14.5 20.9 0.00 0.00 0.00 71 1013.5
20260503193033 16 248 9.7 11.3 0.00 0.00 0.00 70 1013.5
20260503192530 15 214 14.5 16.1 0.00 0.00 0.00 71 1013.5
20260503192026 16 192 8.0 11.3 0.00 0.00 0.00 70 1013.5
20260503191522 16 329 3.2 4.8 0.00 0.00 0.00 69 1013.7
20260503191019 16 285 3.2 12.9 0.00 0.00 0.00 72 1013.5
20260503190516 15 288 8.0 11.3 0.00 0.00 0.00 74 1013.3
20260503190013 15 216 8.0 20.9 0.00 0.00 0.00 74 1013.5
20260503185509 16 18 1.6 8.0 0.00 0.00 0.00 73 1013.4
20260503185009 16 299 14.5 16.1 0.00 0.00 0.00 74 1013.5
20260503184506 16 43 4.8 14.5 0.00 0.00 0.00 75 1013.4
20260503184002 16 243 1.6 12.9 0.00 0.00 0.00 75 1013.3
20260503183459 16 289 3.2 4.8 0.00 0.00 0.00 74 1013.4
20260503182955 15 218 8.0 14.5 0.00 0.00 0.00 74 1013.4
20260503182455 16 182 9.7 16.1 0.00 0.00 0.00 73 1013.5
20260503181952 15 13 0.0 12.9 0.00 0.00 0.00 75 1013.3
20260503181449 15 214 11.3 14.5 0.00 0.00 0.00 74 1013.6
20260503180945 15 44 6.4 11.3 0.00 0.00 0.00 75 1013.3
20260503180443 15 349 1.6 11.3 0.00 0.00 0.00 76 1013.4
20260503175939 15 339 0.0 9.7 0.00 0.00 0.00 75 1013.4
20260503175438 15 341 1.6 8.0 0.00 0.00 0.00 75 1013.4
20260503174939 15 262 6.4 9.7 0.00 0.00 0.00 76 1013.5
20260503174437 15 240 3.2 9.7 0.00 0.00 0.00 77 1013.4
20260503173932 15 213 8.0 12.9 0.00 0.00 0.00 77 1013.4
20260503173428 15 167 0.0 8.0 0.00 0.00 0.00 78 1013.4
20260503172925 15 204 4.8 8.0 0.00 0.00 0.00 77 1013.3
20260503172422 15 227 16.1 17.7 0.00 0.00 0.00 78 1013.4
20260503171918 15 157 4.8 9.7 0.00 0.00 0.00 79 1013.5
20260503171415 15 200 9.7 11.3 0.00 0.00 0.00 78 1013.3
20260503170913 15 291 6.4 9.7 0.00 0.00 0.00 78 1013.3
20260503170409 15 321 0.0 4.8 0.00 0.00 0.00 78 1013.3
20260503150801 12 174 3.2 3.2 0.00 0.00 0.00 84 1012.9
20260503150257 12 168 4.8 4.8 0.00 0.00 0.00 83 1012.9
20260503140222 12 10 0.0 0.0 0.00 0.00 0.00 84 1012.0
20260503131151 12 319 6.4 9.7 0.00 0.00 0.00 84 1011.3
20260503130649 12 340 3.2 4.8 0.00 0.00 0.00 85 1011.4
20260503130146 12 347 0.0 3.2 0.00 0.00 0.00 85 1011.2
20260503120112 12 36 0.0 0.0 0.00 0.00 0.00 85 1011.5
20260503110539 12 325 6.4 9.7 0.00 0.00 0.00 84 1011.5
20260503090426 12 217 1.6 11.3 0.00 0.00 0.00 85 1011.8
20260503081352 12 220 1.6 3.2 0.00 0.00 0.00 85 1012.4
20260503080849 12 296 1.6 3.2 0.00 0.00 0.00 85 1012.4
20260503080346 12 337 0.0 3.2 0.00 0.00 0.00 85 1012.3
20260503072823 12 44 1.6 4.8 0.00 0.00 0.00 85 1012.3
20260503072320 12 320 1.6 4.8 0.00 0.00 0.00 85 1012.5
20260503071815 12 15 0.0 3.2 0.00 0.00 0.00 85 1012.4
20260503071313 12 346 1.6 8.0 0.00 0.00 0.00 85 1012.2
20260503070809 12 343 0.0 4.8 0.00 0.00 0.00 85 1012.3
20260503070307 12 331 1.6 3.2 0.00 0.00 0.00 85 1012.2
20260503060238 12 309 0.0 1.6 0.00 0.00 0.00 85 1012.6
20260503054725 12 305 0.0 4.8 0.00 0.00 0.00 85 1012.9
20260503054222 12 212 4.8 9.7 0.00 0.00 0.00 85 1012.7
20260503053720 12 13 0.0 8.0 0.00 0.00 0.00 85 1013.0
20260503053219 12 292 1.6 4.8 0.00 0.00 0.00 85 1012.9
20260503052714 12 292 4.8 8.0 0.00 0.00 0.00 85 1012.7
20260503052211 12 304 3.2 4.8 0.00 0.00 0.00 85 1012.8
20260503051706 12 288 6.4 12.9 0.00 0.00 0.00 85 1012.8
20260503051204 12 18 3.2 8.0 0.00 0.00 0.00 85 1012.6
20260503050701 12 320 0.0 11.3 0.00 0.00 0.00 85 1012.8
20260503050157 12 3 3.2 12.9 0.00 0.00 0.00 85 1012.8
20260503045655 12 352 0.0 9.7 0.00 0.00 0.00 85 1012.6
20260503045152 12 345 3.2 9.7 0.00 0.00 0.00 85 1012.6
20260503044648 12 278 9.7 14.5 0.00 0.00 0.00 85 1012.6
20260503044146 12 242 8.0 11.3 0.00 0.00 0.00 85 1012.5
20260503043643 12 248 8.0 17.7 0.00 0.00 0.00 85 1012.6
20260503043140 12 271 6.4 9.7 0.00 0.00 0.00 85 1012.6
20260503042636 12 318 6.4 17.7 0.00 0.00 0.00 85 1012.6
20260503042132 12 281 8.0 11.3 0.00 0.00 0.00 85 1012.6
20260503041629 12 272 8.0 16.1 0.00 0.00 0.00 85 1012.7
20260503041127 12 40 6.4 12.9 0.00 0.00 0.00 85 1012.5
20260503040624 12 333 4.8 12.9 0.00 0.00 0.00 85 1012.6
20260503040121 12 266 4.8 9.7 0.00 0.00 0.00 85 1012.6
20260503035617 12 284 4.8 9.7 0.00 0.00 0.00 85 1012.4
20260503035115 12 41 1.6 3.2 0.00 0.00 0.00 85 1012.4
20260503034612 12 308 3.2 9.7 0.00 0.00 0.00 85 1012.2
20260503034110 12 340 9.7 12.9 0.00 0.00 0.00 85 1012.5
20260503033607 12 283 6.4 11.3 0.00 0.00 0.00 85 1012.2
20260503033104 12 280 6.4 9.7 0.00 0.00 0.00 85 1012.1
20260503032603 12 294 11.3 12.9 0.00 0.00 0.00 85 1012.0
20260503032100 12 275 4.8 11.3 0.00 0.00 0.00 85 1012.0
20260503031558 12 333 3.2 8.0 0.00 0.00 0.00 85 1012.0
20260503031055 12 7 3.2 4.8 0.00 0.00 0.00 85 1011.7
20260503030551 12 284 1.6 12.9 0.00 0.00 0.00 85 1011.9
20260503030048 12 288 4.8 12.9 0.00 0.00 0.00 84 1011.8
20260503025545 12 280 14.5 16.1 0.00 0.00 0.00 84 1011.7
20260503025043 12 230 4.8 14.5 0.00 0.00 0.00 85 1011.9
20260503024538 12 285 11.3 20.9 0.00 0.00 0.00 85 1012.0
20260503024036 12 268 6.4 11.3 0.00 0.00 0.00 84 1011.6
20260503023533 12 277 4.8 9.7 0.00 0.00 0.00 84 1011.9
20260503023031 12 283 6.4 14.5 0.00 0.00 0.00 84 1011.7
20260503022526 12 323 3.2 9.7 0.00 0.00 0.00 84 1011.8
20260503022021 12 321 4.8 16.1 0.00 0.00 0.00 84 1011.7
20260503021518 12 318 3.2 9.7 0.00 0.00 0.00 84 1011.8
20260503021015 12 298 4.8 17.7 0.00 0.00 0.00 84 1011.9
20260503020512 13 302 11.3 14.5 0.00 0.00 0.00 84 1011.7
20260503020009 13 338 4.8 12.9 0.00 0.00 0.00 84 1011.9
20260503015505 13 297 0.0 14.5 0.00 0.00 0.00 83 1011.7
20260503015002 13 293 9.7 14.5 0.00 0.00 0.00 83 1011.9
20260503014459 13 289 8.0 11.3 0.00 0.00 0.00 83 1012.0
20260503013957 13 273 6.4 14.5 0.00 0.00 0.00 82 1012.2
20260503013453 13 287 3.2 9.7 0.00 0.00 0.00 82 1012.1
20260503012950 13 296 4.8 9.7 0.00 0.00 0.00 81 1012.1
20260503012449 13 16 1.6 4.8 0.00 0.00 0.00 81 1012.1
20260503011944 13 275 14.5 20.9 0.00 0.00 0.00 81 1012.1
20260503011441 13 45 4.8 9.7 0.00 0.00 0.00 82 1012.1
20260503010939 13 229 4.8 11.3 0.00 0.00 0.00 81 1011.8
20260503010435 14 300 3.2 14.5 0.00 0.00 0.00 80 1012.2
20260503005932 14 254 3.2 12.9 0.00 0.00 0.00 80 1012.2
20260503005430 13 271 4.8 16.1 0.00 0.00 0.00 80 1012.2
20260503004926 14 314 8.0 16.1 0.00 0.00 0.00 80 1011.9
20260503004423 15 276 9.7 16.1 0.00 0.00 0.00 79 1012.3
20260503003921 15 304 4.8 12.9 0.00 0.00 0.00 78 1012.2
20260503003417 15 254 3.2 12.9 0.00 0.00 0.00 78 1012.2
20260503002915 15 38 4.8 17.7 0.00 0.00 0.00 78 1012.3
20260503002412 15 266 12.9 20.9 0.00 0.00 0.00 77 1012.1
20260503001908 15 350 3.2 17.7 0.00 0.00 0.00 77 1012.2
20260503001404 15 19 4.8 25.7 0.00 0.00 0.00 78 1012.2
20260503000902 15 301 12.9 17.7 0.00 0.00 0.00 76 1012.1
20260503000400 16 241 11.3 14.5 0.00 0.00 0.00 73 1012.0
20260502235856 17 239 6.4 12.9 0.00 0.00 0.00 71 1012.4
20260502235353 15 262 4.8 14.5 0.00 0.00 0.00 75 1012.3
20260502234850 15 241 11.3 16.1 0.00 0.00 0.00 76 1012.3
20260502234347 16 204 6.4 20.9 0.00 0.00 0.00 75 1012.4
20260502233844 16 286 11.3 25.7 0.00 0.00 0.00 75 1012.2
20260502233340 16 297 4.8 25.7 0.00 0.00 0.00 74 1012.3
20260502232837 17 263 8.0 16.1 0.00 0.00 0.00 72 1012.2
20260502232333 16 219 3.2 12.9 0.00 0.00 0.00 73 1012.3
20260502231830 17 207 11.3 20.9 0.00 0.00 0.00 73 1012.4
20260502231328 17 269 6.4 17.7 0.00 0.00 0.00 72 1012.3
20260502230826 16 351 6.4 16.1 0.00 0.00 0.00 74 1012.4
20260502230324 17 8 1.6 17.7 0.00 0.00 0.00 72 1012.4
20260502225820 17 292 14.5 17.7 0.00 0.00 0.00 71 1012.7
20260502225317 17 240 4.8 12.9 0.00 0.00 0.00 69 1012.8
20260502224814 17 291 8.0 14.5 0.00 0.00 0.00 71 1012.6
20260502224310 18 288 8.0 12.9 0.00 0.00 0.00 68 1012.8
20260502223808 17 328 8.0 20.9 0.00 0.00 0.00 73 1012.7
20260502223306 18 192 3.2 24.1 0.00 0.00 0.00 69 1013.0
20260502222803 18 235 6.4 9.7 0.00 0.00 0.00 70 1013.0
20260502222300 17 43 6.4 16.1 0.00 0.00 0.00 72 1013.0
20260502221755 17 209 12.9 16.1 0.00 0.00 0.00 73 1012.9
20260502221252 17 299 4.8 17.7 0.00 0.00 0.00 70 1013.0
20260502220749 17 294 4.8 14.5 0.00 0.00 0.00 73 1012.9
20260502220245 18 279 8.0 17.7 0.00 0.00 0.00 71 1013.1
20260502215742 17 303 9.7 20.9 0.00 0.00 0.00 73 1013.1
20260502215239 17 339 6.4 12.9 0.00 0.00 0.00 74 1013.2
20260502214736 17 28 1.6 16.1 0.00 0.00 0.00 73 1013.1
20260502214234 17 330 11.3 17.7 0.00 0.00 0.00 72 1013.1
20260502213730 17 223 16.1 24.1 0.00 0.00 0.00 76 1013.1
20260502213227 17 229 6.4 11.3 0.00 0.00 0.00 72 1013.4
20260502212726 17 36 1.6 17.7 0.00 0.00 0.00 75 1013.2
20260502212224 17 196 9.7 16.1 0.00 0.00 0.00 74 1013.3
20260502211720 17 238 4.8 12.9 0.00 0.00 0.00 72 1013.4
20260502211217 17 190 8.0 17.7 0.00 0.00 0.00 77 1013.4
20260502210714 17 292 4.8 12.9 0.00 0.00 0.00 76 1013.4
20260502210211 17 99 6.4 11.3 0.00 0.00 0.00 74 1013.5
20260502205708 17 293 16.1 24.1 0.00 0.00 0.00 77 1013.5
20260502205204 17 286 9.7 14.5 0.00 0.00 0.00 76 1013.4
20260502204701 17 340 4.8 4.8 0.00 0.00 0.00 74 1013.3
20260502204159 17 216 9.7 17.7 0.00 0.00 0.00 77 1013.5
20260502203656 17 237 3.2 8.0 0.00 0.00 0.00 76 1013.5
20260502203155 16 226 14.5 20.9 0.00 0.00 0.00 78 1013.7
20260502202648 16 197 14.5 20.9 0.00 0.00 0.00 81 1013.5
20260502202147 17 301 4.8 11.3 0.00 0.00 0.00 77 1013.7
20260502201643 17 279 0.0 11.3 0.00 0.00 0.00 77 1013.7
20260502201140 17 206 8.0 11.3 0.00 0.00 0.00 78 1013.8
20260502200636 17 31 1.6 8.0 0.00 0.00 0.00 77 1013.6